Regional Weather Roundup
Issued by NWS

Home | Current Version | Previous Version | Text Only | Print | Product List | Glossary Off
Versions: 1 2 3 4 5 6 7 8 9 10 11 12 13 14 15 16 17 18 19 20 21 22 23 24 25 26 27 28 29 30 31 32 33 34 35 36 37 38 39 40 41 42 43 44 45 46 47 48 49 50

000
ASUS43 KMKX 252121
RWRWI

WISCONSIN REGIONAL WEATHER ROUNDUP
NATIONAL WEATHER SERVICE MILWAUKEE/SULLIVAN WI
400 PM CDT TUE APR 25 2017

NOTE: "FAIR" INDICATES FEW OR NO CLOUDS BELOW 12,000 FEET WITH NO
SIGNIFICANT WEATHER AND/OR OBSTRUCTIONS TO VISIBILITY.

WIZ001-002-006>008-014>016-023>028-252200-
NORTHWEST WISCONSIN

CITY           SKY/WX    TMP DP  RH WIND       PRES   REMARKS
SUPERIOR ARPT  PTSUNNY   43  38  80 NE16      29.64R
ASHLAND        CLOUDY    48  40  73 NE13      29.63R
HAYWARD        CLOUDY    62  40  44 N14G21    29.56S
SIREN          CLOUDY    63  43  47 CALM      29.56R
CUMBERLAND     RAIN      61  46  59 SW15G25   29.56R
RICE LAKE      DRIZZLE   62  50  66 SW10G21   29.57R
CHETEK         CLOUDY    66  48  52 S14G26    29.55R
LADYSMITH      CLOUDY    71  41  34 S8        29.55S
EAU CLAIRE     LGT RAIN  66  49  54 SW12G22   29.55R
MENOMONIE      RAIN      61  52  71 S6        29.56R
NEW RICHMOND   RAIN      59  47  65 SW10      29.57S
OSCEOLA        LGT RAIN  59  51  75 W3        29.59S
$$

WIZ003>005-009-010-017-018-252200-
NORTH CENTRAL WISCONSIN

CITY           SKY/WX    TMP DP  RH WIND       PRES   REMARKS
MANITOWISH WTR CLOUDY    70  40  33 S5        29.56S
ARBOR VITAE    CLOUDY    72  39  29 S8        29.56F
WOODRUFF       CLOUDY    72  39  29 S8        29.56F
RHINELANDER    PTSUNNY   74  39  28 SW10      29.57F
EAGLE RIVER    CLOUDY    72  34  24 SE5       29.57S
LAND O LAKES   CLOUDY    73  33  23 S8        29.59S
PHILLIPS       CLOUDY    70  43  38 S10       29.54F
TOMAHAWK       CLOUDY    71  38  29 S5        29.56F
MEDFORD        CLOUDY    69  42  37 SE7       29.55F
MERRILL        CLOUDY    73  40  29 S7        29.56F
$$

WIZ029-030-035-036-043>047-252200-
CENTRAL WISCONSIN

CITY           SKY/WX    TMP DP  RH WIND       PRES   REMARKS
WAUSAU         CLOUDY    72  38  29 S12       29.54F
MOSINEE        MOSUNNY   72  37  28 S13G20    29.56F
MARSHFIELD     CLOUDY    70  40  33 S10       29.54F
STEVENS POINT  CLOUDY    72  40  31 SE10      29.55F
WAUPACA        MOSUNNY   75  39  27 S15       29.56F
WAUTOMA        CLOUDY    74  43  32 S15       29.55F
WISC RAPIDS    CLOUDY    74  40  29 S10       29.54F
CAMP DOUGLAS   LGT RAIN  70  46  43 SW13      29.55R
$$

WIZ011>013-019>022-031-037>040-048>050-252200-
NORTHEAST WISCONSIN

CITY           SKY/WX    TMP DP  RH WIND       PRES   REMARKS
ANTIGO         CLOUDY    68  46  44 S14       29.59F
SHAWANO        MOSUNNY   75  41  29 S7        29.57F
OCONTO         MOSUNNY   67  49  52 SE14      29.61F
STURGEON BAY   MOSUNNY   62  52  69 S23G29    29.63F
GREEN BAY      MOSUNNY   71  52  50 SE15G23   29.60F
MANITOWOC      CLOUDY    58  49  72 S15       29.64F
APPLETON       MOSUNNY   72  48  43 SE16G22   29.58S
CLINTONVILLE   MOSUNNY   73  37  27 S13       29.56F
OSHKOSH        MOSUNNY   72  52  49 SE15G23   29.57F
$$

WIZ032>034-041-042-053>061-252200-
SOUTHWEST WISCONSIN

CITY           SKY/WX    TMP DP  RH WIND       PRES   REMARKS
LA CROSSE      CLOUDY    61  55  81 N6        29.54S
SPARTA         LGT RAIN  62  53  72 CALM      29.58R
VIROQUA        CLOUDY    65  48  54 CALM      29.56R
BOSCOBEL       PTSUNNY   73  43  33 VRB3      29.52R
PRAIRIE DU CHI CLOUDY    72  43  35 E8        29.51F
PLATTEVILLE    CLOUDY    73  44  34 SE20      29.53S
$$

WIZ056-057-062-063-064-067-068-252200-
SOUTH CENTRAL WISCONSIN

CITY           SKY/WX    TMP DP  RH WIND       PRES   REMARKS
REEDSBURG      CLOUDY    66  52  61 NW5       29.54S
BARABOO/DELLS  CLOUDY    69  43  38 SE8       29.54F
LONE ROCK      PTSUNNY   72  44  36 SE6       29.53S
MINERAL POINT  CLOUDY    72  43  35 SE14      29.54R
MADISON        LGT RAIN  72  43  35 S17       29.54F
MIDDLETON      CLOUDY    74  43  33 S14       29.55R
WATERTOWN      CLOUDY    71  48  42 SE10      29.54F
MONROE         CLOUDY    72  45  37 SE22      29.54F
JANESVILLE     PTSUNNY   75  43  31 S17G23    29.55S
$$

WIZ051-052-058>065-066-070>072-252200-
SOUTHEAST WISCONSIN

CITY           SKY/WX    TMP DP  RH WIND       PRES   REMARKS
MILWAUKEE      CLOUDY    66  51  58 SE14      29.60F
WAUKESHA       MOSUNNY   68  48  49 E14G23    29.59F
MILWAUKEE/TIMM SUNNY     70  45  40 SE15      29.61F
RACINE         CLOUDY    64  49  57 SE10      29.61F
KENOSHA        CLOUDY    70  49  47 SE15G24   29.58F
FOND DU LAC    CLOUDY    72  49  44 SE17      29.57F
SHEBOYGAN      CLOUDY    61  52  72 S17G25    29.63F
WEST BEND      CLOUDY    68  46  45 SE15      29.59F
JUNEAU         MOSUNNY   70  47  44 SE8       29.56F
$$

LSZ147-162-252200-
LAKE SUPERIOR

STATION/POSITION TIME  TEMP    WIND        PRES    WAVE
                       AIR SEA DIR/SP/G            HT/PER
                 (UTC) (F)     (DEG/KT/KT) (MB)    (FT/S)
DEVILS ISLAND    2100   40      50/ 23/ 25 1004.1F
SAXON HARBOR     2040   41      20/  6/  7 1003.7R
$$

LMZ867-665-643>646-252200-
LAKE MICHIGAN

STATION/POSITION TIME  TEMP    WIND        PRES    WAVE
                       AIR SEA DIR/SP/G            HT/PER
                 (UTC) (F)     (DEG/KT/KT) (MB)    (FT/S)
CHAMBERS ISLAND  2040   62     130/  8/ 16 1004.1S
N MID LAKE BUOY  2050   41 37   70/  8/  8 1006.6F   1/ 4
NORTHPORT PIER   2040   48     130/ 13/ 15 1004.7F
SISTER BAY       2021   65     180/ 22/ 28   N/A
KEWAUNEE LAKESHO 2054   49     170/ 11/ 12 1003.8F
SHEBOYGAN LAKESH 2100   46     140/  4/  5 1003.6F
PORT WASHINGTON  2040   51     160/  4/  6 1004.4F
MILWAUKEE LAKESH 2100   50     140/ 10/ 11   N/A
S MID LAKE BUOY  2050   48 42   90/  6/  8 1004.5F   1
KENOSHA   LAKESH 2100   55     130/ 13/ 15 1001.7
$$

TC  - TEMPERATURE IN CELSIUS
VSB - VISIBILITY IN STATUTE MILES
WCI - WIND CHILL INDEX
HX  - HEAT INDEX





USA.gov is the U.S. government's official web portal to all federal, state and local government web resources and services.